Regional Weather Roundup
Issued by NWS

Home | Current Version | Previous Version | Text Only | Print | Product List | Glossary On
Versions: 1 2 3 4 5 6 7 8 9 10 11 12 13 14 15 16 17 18 19 20 21 22 23 24 25 26 27 28 29 30 31 32 33 34 35 36 37 38 39 40 41 42 43 44 45 46 47 48 49 50
000
ASUS43 KTOP 020759
RWRKS

WEATHER ROUNDUP FOR KANSAS
NATIONAL WEATHER SERVICE GOODLAND KS
300 AM CDT SUN AUG 02 2015

NOTE:  "FAIR" INDICATES FEW OR NO CLOUDS BELOW 12,000 FEET WITH NO
SIGNIFICANT WEATHER AND/OR OBSTRUCTIONS TO VISIBILITY.

KSZ001>006-013>018-027>032-041>047-020900-
NORTHWEST KANSAS

CITY           SKY/WX    TMP DP  RH WIND       PRES   REMARKS
GOODLAND       MOCLDY    69  64  84 S8        30.00F
HAYS           CLOUDY    73  63  68 S6        29.95F
HILL CITY      PTCLDY    73  66  78 CALM      29.94F
RUSSELL        MOCLDY    72  68  87 S8        29.93F
$$

KSZ061>065-074>080-084>089-020900-
SOUTHWEST KANSAS

CITY           SKY/WX    TMP DP  RH WIND       PRES   REMARKS
DODGE CITY     CLOUDY    71  67  87 S10       29.98F
ELKHART          N/A     71  65  81 SE14        N/A
GARDEN CITY    MOCLDY    71  68  90 S7        29.97F
GREAT BEND     CLOUDY    73  66  78 S7        29.95S
LIBERAL        CLOUDY    73  66  78 SW7       29.99S
$$

KSZ066>073-081>083-090>101-020900-
SOUTHEAST KANSAS

CITY           SKY/WX    TMP DP  RH WIND       PRES   REMARKS
CHANUTE        PTCLDY    70  66  87 S6        29.96F
COFFEYVILLE    CLEAR     68  66  93 SE3       29.96F
HUTCHINSON     MOCLDY    75  69  81 S6        29.95F
MEDICINE LODGE   N/A     73  70  90 S6        29.95F
NEWTON         MOCLDY    73  64  73 S7        29.98F
PARSONS        CLEAR     69  67  93 CALM      29.97F
WICHITA INTL   MOCLDY    73  68  84 S7        29.95F
WICHITA JABRA  PTCLDY    75  68  78 S8        29.96F
WINFIELD       CLEAR     72  67  84 S5        29.97F
$$

KSZ007>012-019>026-033>040-048>060-102>105-020900-
NORTHEAST KANSAS

CITY           SKY/WX    TMP DP  RH WIND       PRES   REMARKS
CONCORDIA      PTCLDY    74  68  81 S10       29.92F
EMPORIA        MOCLDY    72  67  84 S8        29.95F
LAWRENCE       PTCLDY    69  66  90 E5        29.95F
MANHATTAN      MOCLDY    75  70  84 SW7       29.92F
OLATHE IND     CLEAR     70  66  87 S5        29.96F
OLATHE EXE     CLEAR     72  67  84 SW5       29.95F
SALINA         MOCLDY    75  69  81 S5        29.93F
TOPEKA BILLARD PTCLDY    73  69  87 SE5       29.94F
TOPEKA FORBES  MOCLDY    74  69  85 S6        29.94F
$$



USA.gov is the U.S. government's official web portal to all federal, state and local government web resources and services.